{"data":{"norad_id":62876,"intl_designator":"2025-023A","name":"QZS-6 (QZSS/PRN 200)","alt_names":[],"object_type":"PAYLOAD","status":"ACTIVE","operator":null,"country":"JPN","launch_date":"2025-02-02","launch_site_code":"TANSC","launch_vehicle":null,"mission":null,"orbit_class":"UNKNOWN","rcs_meters":null,"size_class":null,"mass_kg":null,"dimensions":null,"purposes":["comms","nav"],"wikipedia_slug":null,"has_3d_model":false,"image_url":null,"decayed_at":null,"tle_current":{"epoch":"2026-09-19T20:57:54.567072Z","epoch_age_seconds":68416,"freshness":"FRESH","line1":"1 62876U 25023A   26262.87354823 -.00000238  00000+0  00000+0 0  9991","line2":"2 62876   0.0443 285.5121 0001895 256.5675 221.7040  1.00274593  5894","mean_motion":1.00274593,"eccentricity":0.0001895,"inclination_deg":0.0443,"raan_deg":285.5121,"arg_perigee_deg":256.5675,"mean_anomaly_deg":221.704,"bstar":0,"rev_number":589,"period_min":1436.0566888564,"perigee_km":35777.817727688,"apogee_km":35793.797862766,"semimajor_km":42163.944795227,"source":"CELESTRAK","updated_at":"2026-09-20T09:00:46.841147Z"}}}